User: anonymous   Login
Location: Helsinki
(60.1699°N, 24.9384°E)
Time: 21:27:37
(UTC+02:00)
Language:

Altair - Orbit

View from above orbital plane
View from above orbital plane
View from above satellite
View from above satellite

Ground track
Ground track

The orbit data is extracted from the following two-line orbital elements,

1    50U 60009B   20301.74579881 -.00000051 +00000-0 +33141-3 0  9997
2    50 047.2324 070.6777 0113148 359.9502 000.1261 12.20112829686822
Epoch (UTC): 27 October 2020 17:53:57
Eccentricity: 0.0113148
inclination: 47.2324°
perigee height: 1502 km
apogee height: 1682 km
right ascension of ascending node: 70.6777°
argument of perigee: 359.9502°
revolutions per day: 12.20112829
mean anomaly at epoch: 0.1261°
orbit number at epoch: 68682

The dashed part of the orbit path shows where the satellite is in the earth's shadow,  

DLR